Simultaneous Nadir Overpasses (SNOs) Predictions

Prediction of SNOs between FY3D and TERRA Satellite Orbit:

Table of predicted SNOs for the next 14.0 days since TLE Epoch: 6/25/2022
Index Date (FY3D) Time (FY3D) Lat,Lon (FY3D) SZA (FY3D ) Date (TERRA) Time (TERRA) Lat,Lon (TERRA) SZA (TERRA ) Distance(km) Time Diff (sec)
1 06/27/2022 02:18:12 72.09, 144.41 48.67 06/27/2022 02:19:22 71.95, 145.63 48.52 44.92 70
2 06/27/2022 03:08:47 -71.61, -47.38 131.82 06/27/2022 03:08:56 -71.61, -47.31 131.82 2.60 9
3 06/27/2022 03:59:32 71.50, 120.12 48.08 06/27/2022 03:58:23 71.51, 120.18 48.09 2.35 69
4 06/29/2022 17:45:11 -71.88, 93.06 131.41 06/29/2022 17:46:23 -71.80, 93.62 131.50 21.56 72
5 06/29/2022 18:35:52 71.57, -99.06 48.28 06/29/2022 18:35:52 71.59, -99.09 48.30 2.35 0
6 06/29/2022 19:26:35 -71.51, 68.37 131.79 06/29/2022 19:25:21 -71.53, 68.44 131.77 3.21 74
7 07/02/2022 09:12:13 71.70, 41.66 48.58 07/02/2022 09:13:20 71.71, 41.72 48.59 2.96 67
8 07/02/2022 10:02:54 -71.58,-150.82 131.54 07/02/2022 10:02:49 -71.60,-150.84 131.52 2.04 5
9 07/02/2022 10:53:32 71.11, 17.33 47.99 07/02/2022 10:52:22 71.17, 16.11 48.06 44.15 70
10 07/05/2022 00:39:15 -71.71, -10.11 131.19 07/05/2022 00:40:17 -71.71, -10.05 131.19 2.05 62
11 07/05/2022 01:30:00 71.60, 157.40 48.71 07/05/2022 01:29:44 71.60, 157.42 48.71 0.83 16
12 07/05/2022 02:20:32 -70.97, -34.17 131.93 07/05/2022 02:19:23 -71.00, -35.91 131.88 63.02 69
13 07/07/2022 16:06:20 71.69, -61.81 49.06 07/07/2022 16:07:12 71.70, -61.81 49.07 1.86 52
14 07/07/2022 16:57:03 -71.62, 105.62 131.00 07/07/2022 16:56:42 -71.59, 105.64 131.04 3.53 21



Historial Predications of SNOs between FY3D and TERRA
